Home   Weather   Blackpool   Past weeks
Flag for United Kingdom

Past Weather in Blackpool, England, United Kingdom — Yesterday and Last 2 Weeks

Now
59 °F

Scattered clouds.


Feels Like: 57 °F
Forecast: 67 / 58 °F
Wind: 12 mph from Northwest

Location: Blackpool Airport

Current Time: Jul 18, 2019 at 8:04:38 am

Latest Report: Jul 18, 2019 at 7:20 am


Visibility: N/A

Pressure: 29.77 "Hg

Humidity: 82%

Dew Point: 54 °F

Location of BlackpoolLocation

Past Weather in Blackpool — Graph

°F

Blackpool Temperature Yesterday

Maximum temperature yesterday: 72 °F (at 1:20 pm)
Minimum temperature yesterday: 55 °F (at 6:20 am)
Average temperature yesterday: 65 °F

High & Low Weather Summary for the Past Weeks

 TemperatureHumidityPressure
High73 °F (Jul 15, 12:50 pm)100% (Jul 9, 3:20 pm)30.39 "Hg (Jul 9, 3:20 pm)
Low52 °F (Jul 7, 6:20 am)46% (Jul 8, 12:50 pm)29.74 "Hg (Jul 18, 6:50 am)
Average64 °F75%30.10 "Hg
* Reported Jul 3 6:50 am — Jul 18 6:50 am, Blackpool. Weather by CustomWeather, © 2019

Note: Actual official high and low records may vary slightly from our data, if they occured in-between our weather recording intervals... More about our weather records

Advertising

Blackpool Weather History for the Previous 24 Hours

Scroll right to see more
 ConditionsComfort  
Time TempWeatherWind HumidityBarometerVisibility
6:50 am
Thu, Jul 18
59 °FScattered clouds.12 mph82%29.74 "HgN/A
8:50 pm
Wed, Jul 17
63 °FScattered showers. Partly sunny.14 mph83%29.80 "HgN/A
8:20 pm63 °FScattered showers. Partly sunny.15 mph83%29.80 "HgN/A
7:50 pm63 °FScattered showers. Partly sunny.16 mph77%29.80 "HgN/A
7:20 pm63 °FScattered showers. Partly sunny.20 mph83%29.83 "HgN/A
6:50 pm63 °FSprinkles. Broken clouds.16 mph77%29.83 "HgN/A
6:20 pm64 °FSprinkles. Broken clouds.17 mph73%29.83 "HgN/A
5:50 pm64 °FSprinkles. Broken clouds.17 mph78%29.83 "HgN/A
5:20 pm64 °FSprinkles. Broken clouds.18 mph78%29.86 "HgN/A
4:50 pm64 °FSprinkles. Broken clouds.13 mph78%29.86 "HgN/A
4:20 pm64 °FScattered clouds.9 mph83%29.86 "HgN/A
3:50 pm63 °FSprinkles. Scattered clouds.14 mph83%29.86 "HgN/A
3:20 pm64 °FScattered clouds.9 mph83%29.86 "HgN/A
2:50 pm64 °FPassing clouds.12 mph83%29.89 "HgN/A
2:20 pm66 °FSprinkles. Scattered clouds.14 mph78%29.89 "HgN/A
1:50 pm68 °FSprinkles. Passing clouds.15 mph69%29.89 "HgN/A
1:20 pm72 °FPassing clouds.16 mph65%29.89 "HgN/A
12:20 pm68 °FPassing clouds.17 mph69%29.92 "HgN/A
11:50 am70 °FPassing clouds.20 mph69%29.92 "HgN/A
11:20 am70 °FPassing clouds.18 mph64%29.92 "HgN/A
10:50 am68 °FPassing clouds.15 mph69%29.92 "HgN/A
10:20 am68 °FPassing clouds.16 mph69%29.92 "HgN/A
9:50 am68 °FPassing clouds.14 mph69%29.92 "HgN/A
9:20 am66 °FSunny.13 mph73%29.95 "Hg10 mi
8:50 am66 °FPassing clouds.10 mph73%29.95 "HgN/A
8:20 am64 °FSunny.9 mph78%29.95 "Hg10 mi
Weather by CustomWeather, © 2019

See weather overview